Location: Astronomy Club of Akron Observatory
(40.9700°N, 81.5606°W)
Time: 16:45:57
(UTC-04:00)

ISS - Pass Details

Date: 21 July 2018
Orbit: 402 x 408 km, 51.6° (Epoch: 16 July)

Event Time Altitude Azimuth Distance (km) Brightness Sun altitude
Rises 21:25:57 0° 219° (SW) 2,304 0.1 -6.2°
Reaches altitude 10° 21:28:04 10° 213° (SSW) 1,450 -1.0 -6.5°
Maximum altitude 21:31:12 46° 139° (SE) 548 -3.6 -7.0°
Drops below altitude 10° 21:34:21 10° 64° (ENE) 1,461 -1.3 -7.5°
Sets 21:36:29 0° 58° (ENE) 2,325 -0.2 -7.8°
